Page, AZ

11:37 AM MDT on March 29, 2017 (GMT -0600)
Page Municipal

Weather History for KPGA - January, 2013

Change the Weather History Date:

Saturday, January 5, 2013

  Actual Average Record
Temperature  
Mean Temperature 28 °F -  
Max Temperature 36 °F 38 °F 55 °F (1981)
Min Temperature 19 °F 23 °F 4 °F (1968)
Degree Days  
Heating Degree Days 38    
Moisture  
Dew Point 9 °F    
Average Humidity 46    
Maximum Humidity 66    
Minimum Humidity 19    
Precipitation  
Precipitation 0.00 in - - ()
Sea Level Pressure  
Sea Level Pressure 30.43 in    
Wind  
Wind Speed 1 mph (North)    
Max Wind Speed 5 mph    
Max Gust Speed -    
Visibility 9 miles    
Events      
Averages and records for this station are not official NWS values.
T = Trace of Precipitation, MM = Missing Value Source: NWS Daily Summary

Daily Weather History Graph

Daily Weather History Graph

Search for Another Location

Airport or City:

Trip Planner

Search our weather history database for the weather conditions in past years. The results will help you decide how hot, cold, wet, or windy it might be!

Date:

Astronomy

Jan. 05, 2013 Rise Set
Actual Time 7:39 AM MST 5:23 PM MST
Civil Twilight 7:10 AM MST 5:52 PM MST
Nautical Twilight 6:38 AM MST 6:24 PM MST
Astronomical Twilight 6:06 AM MST 6:56 PM MST
Moon 12:54 AM MST (1/5) 12:11 PM MST (1/5)
Length of Visible Light 10h 41m
Length of Day
9h 44m
Last Quarter, 43% of the Moon is Illuminated
Jan 5
Last Quarter
Jan 11
New
Jan 18
First Quarter
Jan 26
Full
Feb 3
Last Quarter

Hourly Weather History & Observations

Time (MST) Temp. Windchill Dew Point Humidity Pressure Visibility Wind Dir Wind Speed Gust Speed Precip Events Conditions
12:53 AM 23.0 °F - 7.0 °F 50% 30.35 in 10.0 mi Calm Calm - N/A   Clear
1:53 AM 23.0 °F 18.4 °F 7.0 °F 50% 30.35 in 10.0 mi WSW 3.5 mph - N/A   Clear
2:53 AM 21.9 °F - 7.0 °F 53% 30.38 in 6.0 mi Calm Calm - N/A   Haze
3:53 AM 21.0 °F - 7.0 °F 55% 30.38 in 10.0 mi Calm Calm - N/A   Clear
4:53 AM 21.0 °F - 9.0 °F 60% 30.39 in 10.0 mi Calm Calm - N/A   Clear
5:53 AM 19.9 °F - 8.1 °F 60% 30.42 in 6.0 mi Calm Calm - N/A   Haze
6:53 AM 19.0 °F - 7.0 °F 59% 30.45 in 10.0 mi Calm Calm - N/A   Clear
7:53 AM 19.9 °F - 8.1 °F 60% 30.46 in 7.0 mi Calm Calm - N/A   Clear
8:53 AM 24.1 °F - 9.0 °F 53% 30.48 in 10.0 mi Calm Calm - N/A   Clear
9:53 AM 27.0 °F - 9.0 °F 47% 30.49 in 10.0 mi Calm Calm - N/A   Clear
10:53 AM 28.9 °F - 10.0 °F 45% 30.50 in 10.0 mi Calm Calm - N/A   Clear
11:53 AM 32.0 °F 27.5 °F 10.9 °F 42% 30.47 in 10.0 mi North 4.6 mph - N/A   Clear
12:53 PM 33.1 °F 30.0 °F 10.9 °F 40% 30.45 in 10.0 mi Variable 3.5 mph - N/A   Clear
1:53 PM 35.1 °F 32.2 °F 10.9 °F 37% 30.42 in 10.0 mi North 3.5 mph - N/A   Clear
2:53 PM 36.0 °F 33.3 °F 10.0 °F 34% 30.40 in 10.0 mi North 3.5 mph - N/A   Clear
3:53 PM 37.0 °F 34.5 °F 9.0 °F 31% 30.40 in 10.0 mi NE 3.5 mph - N/A   Clear
4:53 PM 36.0 °F - 9.0 °F 33% 30.40 in 10.0 mi Calm Calm - N/A   Clear
5:53 PM 32.0 °F - 10.0 °F 40% 30.43 in 7.0 mi Calm Calm - N/A   Clear
6:53 PM 28.9 °F 25.2 °F 9.0 °F 43% 30.44 in 10.0 mi SE 3.5 mph - N/A   Clear
7:53 PM 28.0 °F - 10.9 °F 49% 30.45 in 10.0 mi Calm Calm - N/A   Clear
8:53 PM 27.0 °F - 10.9 °F 51% 30.44 in 10.0 mi Calm Calm - N/A   Clear
9:53 PM 27.0 °F - 10.9 °F 51% 30.44 in 6.0 mi Calm Calm - N/A   Haze
10:53 PM 26.1 °F - 10.9 °F 53% 30.43 in 5.0 mi Calm Calm - N/A   Haze
11:53 PM 25.0 °F - 15.1 °F 66% 30.42 in 7.0 mi Calm Calm - N/A   Clear